Location: Barruelo
(41.2448°N, 3.8231°W)
Time: 06:20:46
(UTC+00:00)

SOZ - Pass Details

Date: 17 March 2026
Orbit: 299 x 12047 km, 52.0° (Epoch: 14 April)

Event Time Altitude Azimuth Distance (km) Brightness Sun altitude
Rises 03:15:47 0° 215° (SW) 16,646 11.8 -34.4°
Enters shadow 03:22:19 - 215° (SW) 15,898 11.7 -33.4°
Exits shadow 03:48:04 18° 217° (SW) 11,876 11.0 -29.2°
Maximum altitude 04:24:28 79° 140° (SE) 3,198 8.5 -22.9°
Drops below altitude 10° 04:34:18 10° 56° (NE) 3,627 10.0 -21.2°
Sets 04:36:04 0° 55° (NE) 4,150 10.6 -20.8°
